Location: Cahas Mountain Overlook
(37.0833°N, 80.1000°W)
Time: 00:32:12
(UTC-05:00)

Tiros 1 despin weight - All Passes

Search period start: 29 November 2023 00:00
Search period end: 09 December 2023 00:00
Orbit: 583 x 628 km, 48.2° (Epoch: 28 November)

Date Brightness Start Highest point End Pass type
(mag) Time Alt. Az. Time Alt. Az. Time Alt. Az.
29 Nov - 00:12:58 10° NW 00:16:14 20° N 00:19:32 10° ENE night (unlit)
29 Nov - 01:54:02 10° NW 01:58:17 46° NNE 02:02:34 10° ESE night (unlit)
29 Nov - 03:35:28 10° WNW 03:39:28 33° SW 03:43:29 10° SSE night (unlit)
29 Nov - 19:19:03 10° SSW 19:23:09 42° SE 19:27:15 10° ENE visible
29 Nov - 21:00:22 10° W 21:04:26 38° NNW 21:08:31 10° NE visible
29 Nov - 22:43:25 10° NW 22:46:35 19° N 22:49:46 10° NE night (unlit)
30 Nov - 00:25:21 10° NW 00:28:57 24° NNE 00:32:35 10° ENE night (unlit)
30 Nov - 02:06:19 10° NW 02:10:43 78° NNE 02:15:10 10° ESE night (unlit)
30 Nov - 03:48:37 10° W 03:51:35 18° SW 03:54:33 10° S night (unlit)
30 Nov - 17:53:00 10° SSE 17:54:44 12° SE 17:56:28 10° ESE visible
30 Nov - 19:31:04 10° SW 19:35:24 81° SE 19:39:46 10° ENE visible
30 Nov - 21:13:18 10° WNW 21:17:01 27° NNW 21:20:45 10° NE night (unlit)
30 Nov - 22:56:13 10° NW 22:59:20 19° N 23:02:28 10° NE night (unlit)
01 Dec - 00:37:37 10° NW 00:41:34 32° NNE 00:45:34 10° E night (unlit)
01 Dec - 02:18:41 10° WNW 02:23:01 58° SW 02:27:24 10° SE night (unlit)
01 Dec - 18:03:15 10° S 18:06:46 24° SE 18:10:16 10° E visible
01 Dec - 19:43:29 10° WSW 19:47:45 58° NNW 19:52:03 10° NE visible
01 Dec - 21:26:18 10° WNW 21:29:40 21° NNW 21:33:04 10° NE night (unlit)
01 Dec - 23:08:46 10° NW 23:12:04 20° N 23:15:23 10° ENE night (unlit)
02 Dec - 00:49:49 10° NW 00:54:05 49° NNE 00:58:22 10° ESE night (unlit)
02 Dec - 02:31:20 10° WNW 02:35:12 30° SW 02:39:06 10° SSE night (unlit)
02 Dec - 18:14:44 10° SSW 18:18:54 46° SE 18:23:03 10° ENE visible
02 Dec - 19:56:12 10° W 20:00:13 36° NNW 20:04:16 10° NE visible
02 Dec - 21:39:15 10° NW 21:42:23 19° N 21:45:32 10° NE night (unlit)
02 Dec - 23:21:07 10° NW 23:24:44 25° NNE 23:28:23 10° ENE night (unlit)
03 Dec - 01:02:04 10° NW 01:06:27 83° NE 01:10:54 10° ESE night (unlit)
03 Dec - 02:44:34 10° W 02:47:16 16° SW 02:49:59 10° S night (unlit)
03 Dec - 16:48:16 10° SSE 16:50:24 13° SE 16:52:32 10° E daylight
03 Dec - 18:26:47 10° SW 18:31:08 87° SE 18:35:29 10° NE visible
03 Dec - 20:09:07 10° WNW 20:12:46 26° NNW 20:16:27 10° NE visible
03 Dec - 21:52:00 10° NW 21:55:07 19° N 21:58:13 10° NE night (unlit)
03 Dec - 23:33:20 10° NW 23:37:19 34° NNE 23:41:20 10° E night (unlit)
04 Dec - 01:14:27 10° WNW 01:18:43 53° SW 01:23:01 10° SE night (unlit)
04 Dec - 16:58:47 10° SSW 17:02:25 26° SE 17:06:04 10° ENE daylight
04 Dec - 18:39:12 10° WSW 18:43:28 54° NNW 18:47:44 10° NE visible
04 Dec - 20:22:05 10° WNW 20:25:25 21° N 20:28:45 10° NE visible
04 Dec - 22:04:29 10° NW 22:07:48 21° N 22:11:08 10° ENE night (unlit)
04 Dec - 23:45:30 10° NW 23:49:46 52° NNE 23:54:04 10° ESE night (unlit)
05 Dec - 01:27:06 10° WNW 01:30:51 28° SW 01:34:37 10° SSE night (unlit)
05 Dec - 17:10:19 10° SW 17:14:33 50° SE 17:18:45 10° ENE daylight
05 Dec - 18:51:55 10° W 18:55:55 34° NNW 18:59:54 10° NE visible
05 Dec - 20:34:58 10° NW 20:38:06 19° N 20:41:13 10° NE visible
05 Dec - 22:16:47 10° NW 22:20:26 26° NNE 22:24:06 10° ENE night (unlit)
05 Dec - 23:57:44 10° NW 00:02:06 89° NNE 00:06:31 10° SE night (unlit)
06 Dec - 01:40:28 10° W 01:42:52 15° SW 01:45:17 10° SSW night (unlit)
06 Dec - 15:43:31 10° SSE 15:45:59 15° SE 15:48:28 10° E daylight
06 Dec - 17:22:22 10° SW 17:26:46 87° NNW 17:31:07 10° NE visible
06 Dec - 19:04:48 10° WNW 19:08:26 25° NNW 19:12:04 10° NE visible
06 Dec - 20:47:40 10° NW 20:50:47 19° N 20:53:54 10° NE visible
06 Dec - 22:28:57 10° NW 22:32:58 35° NNE 22:36:59 10° E night (unlit)
07 Dec - 00:10:06 10° WNW 00:14:19 49° SW 00:18:33 10° SE night (unlit)
07 Dec - 15:54:13 10° SSW 15:58:00 29° SE 16:01:45 10° ENE daylight
07 Dec - 17:34:49 10° WSW 17:39:04 51° NNW 17:43:19 10° NE visible
07 Dec - 19:17:45 10° WNW 19:21:03 21° N 19:24:21 10° NE visible
07 Dec - 21:00:06 10° NW 21:03:27 21° N 21:06:47 10° ENE night (unlit)
07 Dec - 22:41:05 10° NW 22:45:22 55° NNE 22:49:40 10° ESE night (unlit)
08 Dec - 00:22:46 10° WNW 00:26:24 26° SW 00:30:02 10° S night (unlit)
08 Dec - 16:05:48 10° SW 16:10:05 55° SE 16:14:21 10° ENE daylight
08 Dec - 17:47:31 10° W 17:51:29 33° NNW 17:55:27 10° NE visible
08 Dec - 19:30:36 10° NW 19:33:42 19° N 19:36:48 10° NE visible
08 Dec - 21:12:19 10° NW 21:16:01 26° NNE 21:19:43 10° ENE night (unlit)
08 Dec - 22:53:18 10° WNW 22:57:39 85° SW 23:02:02 10° SE night (unlit)
